SWR2067 LPPR-LSZH

Flight info

Callsign SWR2067
Flight time 2h 12m
Altitude 36000
Route BELDU CANAR ADORO FITSE DGO LPA GOSVI TOPTU TOU GAI MEN NINUN LATAM ETREK LTP SOPLO OMASI KINNI SOSAL KORED BERSU
Aircraft A21N/M-SDE2E3FGHIRWXY/LB1

Departure

Time 2026-05-06 17:01
Airport Francisco de Sá Carneiro Airport (LPPR)

Arrival

Time 2026-05-06 19:13
Airport Zürich Airport (LSZH)
Time Latitude Longitude Altitude Speed Heading
2026-05-06 16:45 41.23509 -8.67291 240 ft 0 kts 114°
2026-05-06 16:52 41.23511 -8.67298 240 ft 4 kts 115°
2026-05-06 16:52 41.23524 -8.67329 240 ft 4 kts 128°
2026-05-06 16:52 41.23543 -8.67352 240 ft 4 kts 157°
2026-05-06 16:53 41.23564 -8.67354 240 ft 2 kts 211°
2026-05-06 16:53 41.23565 -8.67353 240 ft 0 kts 211°
2026-05-06 16:56 41.23557 -8.67360 240 ft 5 kts 211°
2026-05-06 16:56 41.23520 -8.67386 240 ft 7 kts 197°
2026-05-06 16:56 41.23460 -8.67379 240 ft 10 kts 168°
2026-05-06 16:57 41.23380 -8.67363 240 ft 13 kts 190°
2026-05-06 16:57 41.23325 -8.67465 240 ft 16 kts 258°
2026-05-06 16:57 41.23316 -8.67551 240 ft 9 kts 260°
2026-05-06 16:57 41.23308 -8.67602 241 ft 0 kts 257°
2026-05-06 16:58 41.23307 -8.67605 241 ft 1 kts 257°
2026-05-06 16:58 41.23303 -8.67631 241 ft 4 kts 259°
2026-05-06 16:58 41.23296 -8.67684 241 ft 7 kts 263°
2026-05-06 16:58 41.23340 -8.67736 242 ft 11 kts 339°
2026-05-06 16:59 41.23363 -8.67744 242 ft 0 kts 348°
2026-05-06 16:59 41.23365 -8.67745 242 ft 1 kts 348°
2026-05-06 17:00 41.23534 -8.67792 241 ft 59 kts 349°
2026-05-06 17:00 41.24160 -8.67954 239 ft 121 kts 349°
2026-05-06 17:00 41.25155 -8.68219 243 ft 168 kts 348°
2026-05-06 17:00 41.26309 -8.68490 746 ft 169 kts 350°
2026-05-06 17:01 41.27478 -8.68763 1354 ft 172 kts 348°
2026-05-06 17:01 41.28655 -8.69082 1984 ft 174 kts 346°
2026-05-06 17:01 41.29849 -8.69455 2601 ft 181 kts 345°
2026-05-06 17:01 41.31114 -8.69895 3232 ft 196 kts 346°
2026-05-06 17:02 41.32520 -8.70236 3828 ft 214 kts 349°
2026-05-06 17:02 41.34049 -8.70604 4358 ft 237 kts 349°
2026-05-06 17:02 41.35752 -8.71039 4836 ft 260 kts 349°
2026-05-06 17:02 41.37562 -8.71509 5564 ft 269 kts 349°
2026-05-06 17:03 41.39440 -8.71753 6399 ft 274 kts
2026-05-06 17:03 41.41275 -8.71057 7230 ft 278 kts 27°
2026-05-06 17:03 41.42726 -8.69374 8039 ft 281 kts 57°
2026-05-06 17:03 41.43462 -8.66959 8886 ft 284 kts 78°
2026-05-06 17:04 41.43808 -8.64350 9756 ft 288 kts 81°
2026-05-06 17:04 41.44141 -8.61678 10401 ft 301 kts 81°
2026-05-06 17:04 41.44299 -8.58809 10747 ft 322 kts 94°
2026-05-06 17:04 41.44027 -8.55737 11066 ft 344 kts 98°
2026-05-06 17:05 41.43661 -8.52489 11355 ft 365 kts 98°
2026-05-06 17:05 41.43283 -8.49092 11862 ft 375 kts 98°
2026-05-06 17:05 41.42916 -8.45633 12549 ft 379 kts 98°
2026-05-06 17:05 41.42555 -8.42137 13230 ft 383 kts 98°
2026-05-06 17:06 41.42196 -8.38611 13875 ft 386 kts 98°
2026-05-06 17:06 41.41830 -8.35044 14482 ft 390 kts 98°
2026-05-06 17:06 41.41459 -8.31458 15060 ft 393 kts 98°
2026-05-06 17:06 41.41084 -8.27831 15614 ft 397 kts 98°
2026-05-06 17:07 41.40710 -8.24167 16146 ft 401 kts 98°
2026-05-06 17:07 41.40326 -8.20476 16646 ft 404 kts 98°
2026-05-06 17:07 41.39936 -8.16752 17134 ft 408 kts 98°
2026-05-06 17:07 41.39543 -8.12994 17615 ft 411 kts 98°
2026-05-06 17:08 41.39152 -8.09210 18090 ft 414 kts 98°
2026-05-06 17:08 41.38754 -8.05400 18538 ft 417 kts 98°
2026-05-06 17:08 41.38350 -8.01560 18985 ft 420 kts 98°
2026-05-06 17:08 41.37946 -7.97697 19419 ft 423 kts 98°
2026-05-06 17:09 41.37534 -7.93803 19848 ft 426 kts 98°
2026-05-06 17:09 41.37116 -7.89881 20271 ft 429 kts 98°
2026-05-06 17:09 41.36699 -7.85988 20685 ft 432 kts 98°
2026-05-06 17:09 41.36277 -7.82014 21107 ft 435 kts 98°
2026-05-06 17:10 41.35971 -7.77995 21520 ft 438 kts 92°
2026-05-06 17:10 41.36143 -7.73935 21934 ft 441 kts 84°
2026-05-06 17:10 41.36494 -7.69873 22348 ft 444 kts 83°
2026-05-06 17:10 41.36865 -7.65775 22746 ft 447 kts 83°
2026-05-06 17:11 41.37235 -7.61656 23156 ft 450 kts 83°
2026-05-06 17:11 41.37604 -7.57506 23577 ft 453 kts 83°
2026-05-06 17:11 41.37974 -7.53330 23982 ft 456 kts 83°
2026-05-06 17:11 41.38344 -7.49121 24386 ft 459 kts 83°
2026-05-06 17:12 41.38711 -7.44897 24788 ft 461 kts 84°
2026-05-06 17:12 41.39080 -7.40636 25181 ft 464 kts 83°
2026-05-06 17:12 41.39455 -7.36357 25559 ft 467 kts 83°
2026-05-06 17:12 41.39825 -7.32051 25912 ft 469 kts 84°
2026-05-06 17:13 41.40194 -7.27720 26266 ft 472 kts 84°
2026-05-06 17:13 41.40565 -7.23378 26667 ft 472 kts 83°
2026-05-06 17:13 41.40944 -7.19037 27134 ft 471 kts 84°
2026-05-06 17:13 41.41311 -7.14704 27549 ft 471 kts 84°
2026-05-06 17:14 41.41665 -7.10380 27974 ft 470 kts 84°
2026-05-06 17:14 41.42015 -7.06052 28381 ft 469 kts 84°
2026-05-06 17:14 41.42372 -7.01738 28778 ft 468 kts 84°
2026-05-06 17:14 41.42741 -6.97434 29189 ft 468 kts 83°
2026-05-06 17:15 41.43115 -6.93131 29564 ft 467 kts 83°
2026-05-06 17:15 41.43354 -6.90290 29828 ft 466 kts 84°
2026-05-06 17:15 41.43712 -6.85993 30184 ft 466 kts 84°
2026-05-06 17:15 41.44061 -6.81708 30567 ft 465 kts 84°
2026-05-06 17:16 41.44406 -6.77424 30934 ft 465 kts 84°
2026-05-06 17:16 41.44749 -6.73144 31286 ft 464 kts 84°
2026-05-06 17:16 41.45099 -6.68862 31633 ft 464 kts 84°
2026-05-06 17:16 41.45439 -6.64593 31961 ft 463 kts 84°
2026-05-06 17:17 41.45773 -6.60328 32285 ft 463 kts 84°
2026-05-06 17:17 41.46116 -6.56061 32593 ft 463 kts 84°
2026-05-06 17:17 41.46451 -6.51803 32907 ft 462 kts 84°
2026-05-06 17:17 41.46783 -6.47551 33194 ft 462 kts 84°
2026-05-06 17:18 41.47118 -6.43294 33478 ft 461 kts 84°
2026-05-06 17:18 41.47448 -6.39043 33747 ft 461 kts 84°
2026-05-06 17:18 41.47781 -6.34790 33997 ft 461 kts 84°
2026-05-06 17:18 41.48128 -6.30549 34249 ft 461 kts 82°
2026-05-06 17:19 41.48827 -6.26384 34447 ft 461 kts 72°
2026-05-06 17:19 41.49959 -6.22382 34674 ft 461 kts 68°
2026-05-06 17:19 41.51176 -6.18435 34888 ft 461 kts 67°
2026-05-06 17:19 41.52398 -6.14484 35098 ft 461 kts 67°
2026-05-06 17:20 41.53611 -6.10519 35300 ft 461 kts 68°
2026-05-06 17:20 41.54810 -6.06555 35476 ft 461 kts 68°
2026-05-06 17:20 41.56007 -6.02584 35653 ft 462 kts 68°
2026-05-06 17:20 41.57136 -5.98574 35818 ft 462 kts 71°
2026-05-06 17:21 41.58126 -5.94483 35962 ft 464 kts 72°
2026-05-06 17:21 41.60057 -5.86275 35961 ft 463 kts 72°
2026-05-06 17:22 41.62007 -5.78087 35943 ft 462 kts 72°
2026-05-06 17:22 41.63875 -5.70255 35949 ft 463 kts 72°
2026-05-06 17:23 41.65831 -5.62060 35951 ft 463 kts 72°
2026-05-06 17:23 41.67778 -5.53846 35950 ft 463 kts 72°
2026-05-06 17:24 41.69716 -5.45630 35950 ft 463 kts 72°
2026-05-06 17:24 41.71655 -5.37404 35951 ft 464 kts 72°
2026-05-06 17:25 41.73573 -5.29227 35956 ft 464 kts 72°
2026-05-06 17:25 41.75493 -5.20976 35960 ft 464 kts 72°
2026-05-06 17:26 41.77410 -5.12712 35960 ft 465 kts 72°
2026-05-06 17:26 41.79331 -5.04440 35960 ft 465 kts 72°
2026-05-06 17:27 41.81250 -4.96158 35961 ft 466 kts 72°
2026-05-06 17:27 41.83159 -4.87866 35961 ft 466 kts 72°
2026-05-06 17:28 41.85066 -4.79558 35960 ft 466 kts 72°
2026-05-06 17:28 41.86959 -4.71241 35960 ft 466 kts 72°
2026-05-06 17:29 41.88859 -4.62922 35960 ft 466 kts 73°
2026-05-06 17:29 41.90737 -4.54590 35961 ft 466 kts 73°
2026-05-06 17:30 41.92624 -4.46269 35961 ft 466 kts 73°
2026-05-06 17:30 41.94506 -4.37926 35963 ft 466 kts 73°
2026-05-06 17:31 41.96372 -4.29583 35963 ft 466 kts 73°
2026-05-06 17:31 41.98238 -4.21234 35962 ft 466 kts 73°
2026-05-06 17:32 42.00085 -4.12880 35963 ft 466 kts 73°
2026-05-06 17:32 42.01945 -4.04520 35960 ft 467 kts 73°
2026-05-06 17:33 42.03785 -3.96164 35960 ft 466 kts 73°
2026-05-06 17:33 42.05626 -3.87794 35961 ft 466 kts 73°
2026-05-06 17:34 42.07467 -3.79430 35960 ft 466 kts 73°
2026-05-06 17:34 42.09295 -3.71040 35970 ft 467 kts 73°
2026-05-06 17:35 42.11104 -3.62715 35969 ft 466 kts 73°
2026-05-06 17:35 42.12920 -3.54327 35963 ft 467 kts 73°
2026-05-06 17:36 42.15633 -3.41744 35968 ft 466 kts 73°
2026-05-06 17:36 42.17421 -3.33335 35971 ft 467 kts 73°
2026-05-06 17:37 42.19217 -3.24926 35969 ft 467 kts 73°
2026-05-06 17:37 42.21011 -3.16518 35970 ft 466 kts 73°
2026-05-06 17:38 42.22793 -3.08109 35969 ft 466 kts 73°
2026-05-06 17:38 42.24567 -2.99686 35972 ft 467 kts 73°
2026-05-06 17:39 42.26339 -2.91250 35970 ft 467 kts 73°
2026-05-06 17:39 42.28108 -2.82807 35962 ft 467 kts 74°
2026-05-06 17:40 42.29846 -2.74348 35959 ft 468 kts 74°
2026-05-06 17:40 42.31596 -2.65880 35965 ft 468 kts 74°
2026-05-06 17:41 42.33343 -2.57405 35968 ft 468 kts 74°
2026-05-06 17:41 42.35090 -2.48924 35970 ft 469 kts 74°
2026-05-06 17:42 42.36847 -2.40431 35970 ft 469 kts 74°
2026-05-06 17:42 42.38583 -2.31916 35970 ft 470 kts 75°
2026-05-06 17:43 42.40329 -2.23398 35962 ft 470 kts 74°
2026-05-06 17:43 42.42043 -2.14926 35960 ft 470 kts 75°
2026-05-06 17:44 42.43782 -2.06330 35959 ft 470 kts 75°
2026-05-06 17:44 42.45492 -1.97782 35968 ft 470 kts 75°
2026-05-06 17:45 42.47194 -1.89289 35970 ft 471 kts 75°
2026-05-06 17:45 42.48897 -1.80737 35970 ft 471 kts 75°
2026-05-06 17:46 42.50600 -1.72164 35970 ft 470 kts 75°
2026-05-06 17:46 42.52290 -1.63603 35977 ft 470 kts 75°
2026-05-06 17:47 42.53972 -1.55039 35983 ft 470 kts 75°
2026-05-06 17:47 42.55645 -1.46474 35980 ft 469 kts 75°
2026-05-06 17:48 42.57310 -1.37909 35975 ft 470 kts 75°
2026-05-06 17:48 42.58968 -1.29346 35973 ft 469 kts 75°
2026-05-06 17:49 42.60616 -1.20783 35978 ft 469 kts 75°
2026-05-06 17:49 42.62274 -1.12227 35981 ft 468 kts 75°
2026-05-06 17:50 42.63884 -1.03654 35983 ft 468 kts 75°
2026-05-06 17:50 42.65490 -0.95102 35995 ft 467 kts 75°
2026-05-06 17:51 42.67114 -0.86541 35975 ft 468 kts 75°
2026-05-06 17:51 42.68729 -0.77976 35983 ft 467 kts 75°
2026-05-06 17:52 42.70342 -0.69423 36000 ft 467 kts 75°
2026-05-06 17:52 42.71940 -0.60856 35990 ft 467 kts 75°
2026-05-06 17:53 42.73531 -0.52297 36002 ft 466 kts 75°
2026-05-06 17:53 42.75121 -0.43742 35993 ft 467 kts 76°
2026-05-06 17:54 42.76691 -0.35226 35995 ft 467 kts 76°
2026-05-06 17:54 42.78272 -0.26647 35984 ft 467 kts 76°
2026-05-06 17:55 42.80457 -0.18362 35974 ft 466 kts 59°
2026-05-06 17:55 42.84355 -0.11345 35982 ft 463 kts 49°
2026-05-06 17:56 42.88475 -0.04588 35979 ft 464 kts 49°
2026-05-06 17:56 42.92565 0.02217 35991 ft 464 kts 50°
2026-05-06 17:57 42.96688 0.09104 35989 ft 471 kts 50°
2026-05-06 17:57 43.00836 0.16023 35988 ft 471 kts 50°
2026-05-06 17:58 43.04988 0.22946 35985 ft 470 kts 50°
2026-05-06 17:58 43.09117 0.29894 35990 ft 470 kts 50°
2026-05-06 17:59 43.13237 0.36848 35990 ft 470 kts 50°
2026-05-06 17:59 43.17356 0.43798 35979 ft 470 kts 50°
2026-05-06 18:00 43.21468 0.50768 35988 ft 470 kts 50°
2026-05-06 18:00 43.25548 0.57702 35979 ft 470 kts 50°
2026-05-06 18:01 43.29664 0.64723 35975 ft 468 kts 50°
2026-05-06 18:01 43.33715 0.71653 35970 ft 469 kts 50°
2026-05-06 18:02 43.37803 0.78628 35970 ft 469 kts 50°
2026-05-06 18:02 43.41880 0.85628 35971 ft 469 kts 51°
2026-05-06 18:03 43.45954 0.92639 35970 ft 469 kts 50°
2026-05-06 18:03 43.50031 0.99658 35966 ft 470 kts 51°
2026-05-06 18:04 43.53415 1.05510 35960 ft 470 kts 51°
2026-05-06 18:04 43.57485 1.12559 35962 ft 470 kts 51°
2026-05-06 18:05 43.61549 1.19635 35970 ft 470 kts 51°
2026-05-06 18:05 43.65599 1.26724 35962 ft 471 kts 51°
2026-05-06 18:06 43.69595 1.33898 35960 ft 471 kts 53°
2026-05-06 18:06 43.73490 1.41192 35962 ft 472 kts 53°
2026-05-06 18:07 43.77379 1.48493 35969 ft 472 kts 53°
2026-05-06 18:07 43.81269 1.55816 35970 ft 472 kts 53°
2026-05-06 18:08 43.85162 1.63149 35971 ft 473 kts 53°
2026-05-06 18:08 43.89056 1.70492 35969 ft 473 kts 53°
2026-05-06 18:09 43.92947 1.77838 35970 ft 473 kts 53°
2026-05-06 18:09 43.96793 1.85251 35970 ft 473 kts 54°
2026-05-06 18:10 44.00528 1.92701 35970 ft 473 kts 55°
2026-05-06 18:10 44.04269 2.00216 35971 ft 473 kts 55°
2026-05-06 18:11 44.08011 2.07742 35971 ft 473 kts 55°
2026-05-06 18:11 44.11746 2.15282 35970 ft 473 kts 55°
2026-05-06 18:12 44.15474 2.22827 35970 ft 473 kts 55°
2026-05-06 18:12 44.19200 2.30379 35970 ft 473 kts 55°
2026-05-06 18:13 44.22918 2.37939 35971 ft 473 kts 55°
2026-05-06 18:13 44.26626 2.45511 35963 ft 473 kts 55°
2026-05-06 18:14 44.30326 2.53089 35960 ft 472 kts 55°
2026-05-06 18:14 44.34025 2.60663 35960 ft 472 kts 55°
2026-05-06 18:15 44.37716 2.68257 35962 ft 472 kts 56°
2026-05-06 18:15 44.41402 2.75850 35961 ft 472 kts 56°
2026-05-06 18:16 44.45076 2.83446 35960 ft 471 kts 56°
2026-05-06 18:16 44.48750 2.91053 35951 ft 471 kts 56°
2026-05-06 18:17 44.52413 2.98666 35951 ft 472 kts 56°
2026-05-06 18:17 44.56074 3.06309 35947 ft 472 kts 56°
2026-05-06 18:18 44.59736 3.13959 35941 ft 472 kts 56°
2026-05-06 18:18 44.63103 3.21872 35941 ft 472 kts 60°
2026-05-06 18:19 44.66318 3.29901 35934 ft 472 kts 60°
2026-05-06 18:19 44.69530 3.37947 35929 ft 472 kts 60°
2026-05-06 18:20 44.72754 3.46002 35929 ft 473 kts 60°
2026-05-06 18:20 44.75968 3.54075 35920 ft 473 kts 61°
2026-05-06 18:21 44.79175 3.62152 35921 ft 473 kts 61°
2026-05-06 18:21 44.82378 3.70241 35912 ft 473 kts 61°
2026-05-06 18:22 44.85567 3.78329 35910 ft 472 kts 61°
2026-05-06 18:22 44.88747 3.86429 35910 ft 472 kts 61°
2026-05-06 18:23 44.91907 3.94477 35911 ft 472 kts 61°
2026-05-06 18:23 44.95099 4.02631 35910 ft 471 kts 61°
2026-05-06 18:24 44.98253 4.10709 35912 ft 473 kts 62°
2026-05-06 18:24 45.01419 4.18847 35910 ft 473 kts 62°
2026-05-06 18:25 45.04580 4.27001 35911 ft 472 kts 62°
2026-05-06 18:25 45.07729 4.35157 35909 ft 472 kts 62°
2026-05-06 18:26 45.10876 4.43316 35910 ft 472 kts 62°
2026-05-06 18:26 45.14019 4.51490 35911 ft 472 kts 62°
2026-05-06 18:27 45.17149 4.59666 35911 ft 472 kts 62°
2026-05-06 18:27 45.20271 4.67851 35911 ft 472 kts 62°
2026-05-06 18:28 45.23394 4.76043 35910 ft 472 kts 62°
2026-05-06 18:28 45.26509 4.84241 35911 ft 472 kts 62°
2026-05-06 18:29 45.29614 4.92462 35911 ft 472 kts 62°
2026-05-06 18:29 45.32727 5.00678 35908 ft 472 kts 62°
2026-05-06 18:30 45.35825 5.08907 35909 ft 472 kts 63°
2026-05-06 18:30 45.38921 5.17159 35911 ft 473 kts 63°
2026-05-06 18:31 45.42007 5.25416 35910 ft 473 kts 63°
2026-05-06 18:31 45.45095 5.33688 35910 ft 473 kts 63°
2026-05-06 18:32 45.48239 5.41919 35897 ft 473 kts 58°
2026-05-06 18:32 45.50266 5.45606 35894 ft 474 kts 46°
2026-05-06 18:32 45.52665 5.48822 35904 ft 474 kts 41°
2026-05-06 18:33 45.57613 5.55043 35901 ft 474 kts 41°
2026-05-06 18:33 45.62541 5.61305 35901 ft 474 kts 42°
2026-05-06 18:34 45.67448 5.67611 35904 ft 474 kts 42°
2026-05-06 18:34 45.72352 5.73914 35909 ft 474 kts 42°
2026-05-06 18:35 45.77260 5.80236 35910 ft 474 kts 42°
2026-05-06 18:35 45.82164 5.86564 35913 ft 475 kts 42°
2026-05-06 18:36 45.87074 5.92890 35911 ft 474 kts 42°
2026-05-06 18:36 45.91951 5.99174 35913 ft 475 kts 42°
2026-05-06 18:37 45.96060 6.04491 35910 ft 474 kts 42°
2026-05-06 18:37 46.01786 6.11931 35910 ft 474 kts 42°
2026-05-06 18:38 46.06645 6.18267 35911 ft 475 kts 42°
2026-05-06 18:38 46.11437 6.24802 35918 ft 474 kts 45°
2026-05-06 18:39 46.16135 6.31484 35926 ft 474 kts 45°
2026-05-06 18:40 46.23170 6.41523 35930 ft 474 kts 45°
2026-05-06 18:40 46.27866 6.48226 35929 ft 474 kts 45°
2026-05-06 18:41 46.32556 6.54938 35931 ft 474 kts 45°
2026-05-06 18:41 46.37242 6.61646 35935 ft 474 kts 45°
2026-05-06 18:42 46.41917 6.68378 35930 ft 474 kts 45°
2026-05-06 18:42 46.46588 6.75116 35921 ft 474 kts 45°
2026-05-06 18:43 46.51259 6.81874 35921 ft 474 kts 45°
2026-05-06 18:43 46.55903 6.88671 35918 ft 474 kts 48°
2026-05-06 18:44 46.60080 6.96083 35911 ft 474 kts 52°
2026-05-06 18:44 46.64197 7.03566 35910 ft 474 kts 52°
2026-05-06 18:45 46.68331 7.11031 35910 ft 474 kts 52°
2026-05-06 18:45 46.72466 7.18511 35911 ft 474 kts 52°
2026-05-06 18:46 46.76589 7.26011 35911 ft 474 kts 52°
2026-05-06 18:46 46.80684 7.33462 34999 ft 471 kts 52°
2026-05-06 18:46 46.82741 7.37213 34097 ft 474 kts 52°
2026-05-06 18:47 46.84806 7.40987 33228 ft 477 kts 52°
2026-05-06 18:47 46.86874 7.44782 32432 ft 478 kts 52°
2026-05-06 18:47 46.88944 7.48582 31604 ft 479 kts 52°
2026-05-06 18:47 46.91020 7.52388 30763 ft 479 kts 52°
2026-05-06 18:48 46.93097 7.56205 29883 ft 480 kts 53°
2026-05-06 18:48 46.95171 7.60032 29002 ft 480 kts 53°
2026-05-06 18:48 46.97243 7.63857 28074 ft 480 kts 53°
2026-05-06 18:48 46.99287 7.67641 27169 ft 480 kts 53°
2026-05-06 18:49 47.01374 7.71506 26408 ft 475 kts 53°
2026-05-06 18:49 47.03386 7.75225 25751 ft 468 kts 53°
2026-05-06 18:49 47.05394 7.78945 25093 ft 462 kts 53°
2026-05-06 18:49 47.07366 7.82607 24422 ft 455 kts 53°
2026-05-06 18:50 47.09307 7.86235 23743 ft 449 kts 53°
2026-05-06 18:50 47.11223 7.89822 23060 ft 443 kts 53°
2026-05-06 18:50 47.13082 7.93391 22355 ft 437 kts 56°
2026-05-06 18:50 47.14568 7.97250 21650 ft 431 kts 65°
2026-05-06 18:51 47.15842 8.01210 20956 ft 427 kts 66°
2026-05-06 18:51 47.17085 8.05145 20233 ft 423 kts 66°
2026-05-06 18:51 47.18321 8.09042 19528 ft 419 kts 66°
2026-05-06 18:51 47.19484 8.12958 18812 ft 416 kts 67°
2026-05-06 18:52 47.20700 8.16780 18128 ft 412 kts 65°
2026-05-06 18:52 47.21524 8.19278 17675 ft 409 kts 64°
2026-05-06 18:52 47.23071 8.22769 16961 ft 407 kts 49°
2026-05-06 18:52 47.25230 8.25420 16272 ft 404 kts 31°
2026-05-06 18:53 47.27806 8.26978 15586 ft 400 kts 13°
2026-05-06 18:53 47.30536 8.27586 14916 ft 396 kts
2026-05-06 18:53 47.33244 8.28282 14219 ft 393 kts 10°
2026-05-06 18:53 47.35920 8.29042 13512 ft 391 kts 10°
2026-05-06 18:54 47.38584 8.29816 12790 ft 388 kts 11°
2026-05-06 18:54 47.41218 8.30591 12078 ft 385 kts 11°
2026-05-06 18:54 47.43865 8.30888 11451 ft 378 kts 354°
2026-05-06 18:54 47.46383 8.29931 11145 ft 362 kts 334°
2026-05-06 18:55 47.48437 8.28036 10922 ft 346 kts 321°
2026-05-06 18:55 47.50304 8.25830 10741 ft 332 kts 319°
2026-05-06 18:55 47.52031 8.23701 10588 ft 319 kts 319°
2026-05-06 18:55 47.53712 8.21619 10438 ft 307 kts 318°
2026-05-06 18:56 47.55302 8.19655 10288 ft 296 kts 318°
2026-05-06 18:56 47.56852 8.17746 10150 ft 284 kts 318°
2026-05-06 18:56 47.58354 8.15897 10030 ft 271 kts 318°
2026-05-06 18:56 47.59761 8.14170 9907 ft 260 kts 318°
2026-05-06 18:57 47.61124 8.12503 9778 ft 249 kts 318°
2026-05-06 18:57 47.62445 8.10895 9519 ft 244 kts 318°
2026-05-06 18:57 47.63540 8.09036 9161 ft 238 kts 294°
2026-05-06 18:57 47.63894 8.06692 8789 ft 234 kts 266°
2026-05-06 18:58 47.63415 8.04414 8415 ft 234 kts 237°
2026-05-06 18:58 47.62237 8.02787 8022 ft 236 kts 209°
2026-05-06 18:58 47.60641 8.02212 7623 ft 241 kts 181°
2026-05-06 18:58 47.59002 8.02763 7259 ft 243 kts 162°
2026-05-06 18:59 47.57431 8.03683 6929 ft 242 kts 160°
2026-05-06 18:59 47.55876 8.04633 6607 ft 241 kts 160°
2026-05-06 18:59 47.54330 8.05579 6284 ft 240 kts 160°
2026-05-06 18:59 47.52914 8.06887 5941 ft 243 kts 136°
2026-05-06 19:00 47.52031 8.09016 5601 ft 244 kts 114°
2026-05-06 19:00 47.51094 8.11041 5261 ft 238 kts 145°
2026-05-06 19:00 47.49669 8.12237 5033 ft 237 kts 148°
2026-05-06 19:00 47.48560 8.14014 4999 ft 239 kts 118°
2026-05-06 19:01 47.48169 8.16390 5005 ft 241 kts 88°
2026-05-06 19:01 47.48422 8.18838 5017 ft 241 kts 77°
2026-05-06 19:01 47.48804 8.21252 5024 ft 241 kts 76°
2026-05-06 19:01 47.49196 8.23660 5029 ft 241 kts 76°
2026-05-06 19:02 47.49588 8.26071 5032 ft 241 kts 76°
2026-05-06 19:02 47.49979 8.28482 5035 ft 241 kts 76°
2026-05-06 19:02 47.50371 8.30895 5033 ft 241 kts 76°
2026-05-06 19:02 47.50742 8.33302 5031 ft 241 kts 79°
2026-05-06 19:03 47.51014 8.35747 5031 ft 241 kts 81°
2026-05-06 19:03 47.51267 8.38198 5033 ft 241 kts 81°
2026-05-06 19:03 47.51518 8.40650 5032 ft 241 kts 81°
2026-05-06 19:03 47.51772 8.43093 5032 ft 240 kts 82°
2026-05-06 19:04 47.52026 8.45531 5030 ft 240 kts 81°
2026-05-06 19:04 47.52278 8.47980 5030 ft 241 kts 81°
2026-05-06 19:04 47.52529 8.50432 5029 ft 241 kts 81°
2026-05-06 19:04 47.52780 8.52886 5031 ft 241 kts 81°
2026-05-06 19:05 47.53029 8.55340 5032 ft 241 kts 81°
2026-05-06 19:05 47.53278 8.57791 5026 ft 241 kts 81°
2026-05-06 19:05 47.53527 8.60240 5039 ft 241 kts 81°
2026-05-06 19:05 47.53777 8.62692 5035 ft 240 kts 81°
2026-05-06 19:06 47.54028 8.65128 5035 ft 239 kts 81°
2026-05-06 19:06 47.54278 8.67533 5032 ft 240 kts 81°
2026-05-06 19:06 47.54527 8.69969 4939 ft 237 kts 81°
2026-05-06 19:06 47.54775 8.72410 4595 ft 237 kts 81°
2026-05-06 19:07 47.55022 8.74817 4261 ft 237 kts 81°
2026-05-06 19:07 47.55130 8.77196 4042 ft 234 kts 100°
2026-05-06 19:07 47.54501 8.79384 4010 ft 233 kts 130°
2026-05-06 19:07 47.53236 8.80815 4021 ft 230 kts 160°
2026-05-06 19:08 47.51684 8.81284 4035 ft 228 kts 176°
2026-05-06 19:08 47.50104 8.81348 4034 ft 227 kts 186°
2026-05-06 19:08 47.48557 8.80920 4033 ft 226 kts 195°
2026-05-06 19:08 47.47090 8.80347 4017 ft 209 kts 196°
2026-05-06 19:09 47.45711 8.79797 4018 ft 205 kts 196°
2026-05-06 19:09 47.44332 8.79245 4026 ft 206 kts 196°
2026-05-06 19:09 47.42957 8.78695 4025 ft 205 kts 199°
2026-05-06 19:09 47.41765 8.77585 4023 ft 207 kts 231°
2026-05-06 19:10 47.41177 8.75666 4028 ft 208 kts 264°
2026-05-06 19:10 47.41382 8.73589 4025 ft 203 kts 292°
2026-05-06 19:10 47.42193 8.71944 3718 ft 200 kts 321°
2026-05-06 19:10 47.43444 8.71037 3376 ft 200 kts 335°
2026-05-06 19:11 47.44424 8.69817 3242 ft 175 kts 303°
2026-05-06 19:11 47.44828 8.68280 3087 ft 147 kts 282°
2026-05-06 19:11 47.44962 8.66844 2872 ft 139 kts 276°
2026-05-06 19:11 47.45063 8.65428 2671 ft 138 kts 276°
2026-05-06 19:12 47.45164 8.64018 2471 ft 138 kts 276°
2026-05-06 19:12 47.45264 8.62613 2267 ft 138 kts 276°
2026-05-06 19:12 47.45364 8.61211 2068 ft 137 kts 276°
2026-05-06 19:12 47.45463 8.59820 1874 ft 136 kts 276°
2026-05-06 19:13 47.45561 8.58441 1678 ft 134 kts 275°
2026-05-06 19:13 47.45659 8.57073 1491 ft 134 kts 275°
2026-05-06 19:13 47.45747 8.55750 1414 ft 119 kts 277°
2026-05-06 19:13 47.45792 8.55129 1408 ft 16 kts 275°
2026-05-06 19:14 47.45802 8.54957 1396 ft 13 kts 274°
2026-05-06 19:14 47.45741 8.54877 1397 ft 15 kts 178°
2026-05-06 19:14 47.45634 8.54943 1402 ft 18 kts 155°
2026-05-06 19:14 47.45520 8.55034 1404 ft 20 kts 153°
2026-05-06 19:15 47.45420 8.55177 1408 ft 22 kts 121°
2026-05-06 19:15 47.45369 8.55325 1405 ft 4 kts 119°
2026-05-06 19:15 47.45350 8.55377 1408 ft 7 kts 121°
2026-05-06 19:15 47.45318 8.55453 1416 ft 10 kts 123°
2026-05-06 19:16 47.45332 8.55533 1415 ft 14 kts
2026-05-06 19:16 47.45425 8.55475 1412 ft 15 kts 331°
2026-05-06 19:16 47.45513 8.55455 1409 ft 14 kts 34°
2026-05-06 19:16 47.45523 8.55568 1412 ft 10 kts 100°
2026-05-06 19:17 47.45516 8.55638 1416 ft 4 kts 97°
2026-05-06 19:17 47.45513 8.55694 1413 ft 7 kts 96°
2026-05-06 19:17 47.45509 8.55774 1417 ft 9 kts 95°
2026-05-06 19:17 47.45460 8.55807 1418 ft 7 kts 186°
2026-05-06 19:18 47.45432 8.55805 1416 ft 0 kts 187°
2026-05-06 19:18 47.45431 8.55805 1412 ft 0 kts 187°